Regional Weather Roundup
Issued by NWS

Home | Current Version | Previous Version | Text Only | Print | Product List | Glossary On
Versions: 1 2 3 4 5 6 7 8 9 10 11 12 13 14 15 16 17 18 19 20 21 22 23 24 25 26 27 28 29 30 31 32 33 34 35 36 37 38 39 40 41 42 43 44 45 46 47 48 49 50
000
ASHW40 PHFO 271843
RWRHI

WEATHER ROUNDUP FOR HAWAII
NATIONAL WEATHER SERVICE HONOLULU HI
800 AM HST TUE JAN 27 2015

THIS IS AN AUTOMATED REPORT THAT HAS NOT BEEN QUALITY CONTROLLED.

NOTE..."FAIR" INDICATES FEW OR NO CLOUDS BELOW 12,000 FEET WITH NO
SIGNIFICANT WEATHER AND/OR OBSTRUCTIONS TO VISIBILITY.

* - THESE SITES REPORT LIMITED FIELDS

HIZ001>004-271900-
KAUAI-NIIHAU-

CITY           SKY/WX    TMP DP  RH WIND       PRES   REMARKS
LIHUE APT      CLOUDY    73  62  68 E13       30.01R
PORT ALLEN*      N/A     63 N/A N/A N8          N/A
POIPU*           N/A     68 N/A N/A VRB5        N/A
PRINCEVILLE*     N/A     66 N/A N/A MISG        N/A
KOKOLE POINT*    N/A     66 N/A N/A MISG        N/A
MOLOAA DAIRY*  NOT AVBL
WAIMEA HTS*      N/A     70  52  52 VRB5G10     N/A
PUU OPAE*        N/A     63  57  82 CALM        N/A
PUU LUA*       NOT AVBL
MAKAHA RIDGE*  NOT AVBL
$$

HIZ005>011-271900-
OAHU-

CITY           SKY/WX    TMP DP  RH WIND       PRES   REMARKS
HONOLULU       PTCLDY    68  61  78 NW3       29.97R
KALAELOA       CLEAR     65  60  84 CALM      29.99R
KANEOHE MCB    CLOUDY    74  59  59 E9        29.99R
WHEELER FIELD  FAIR      61  58  90 NW3       29.99R
BELLOWS*         N/A    N/A N/A N/A E17         N/A
KAHUKU*          N/A    N/A N/A N/A E9G17       N/A
WHEELER*       NOT AVBL
WAIANAE HARBOR NOT AVBL
DILLINGHAM*      N/A    N/A N/A N/A MISG        N/A
KAHUKU TRN*      N/A     64  55  72 E8G21       N/A
KAWAILOA*        N/A     66  59  77 E12G18      N/A
KII*             N/A     73  63  68 E16G23      N/A
MAKUA RANGE*     N/A     64  59  82 SE3G9       N/A
OAHU FOREST NW   N/A    N/A N/A N/A CALM        N/A
SCHOFIELD BRK*   N/A     55  54  94 MISG        N/A
SCHOFIELD S*   NOT AVBL
WAIANAE VLY*     N/A     73  59  60 N3G15       N/A
KUAOKALA*        N/A     70  57  64 CALM        N/A
HONOULIUULI*   NOT AVBL
MOKUOLOE IS*     N/A    N/A N/A N/A MISG        N/A
PALEHUA*         N/A     75  61  60 CALM        N/A
WAIAWA PHB*    NOT AVBL
$$

HIZ012>013-271900-
MOLOKAI-

CITY           SKY/WX    TMP DP  RH WIND       PRES   REMARKS
MOLOKAI AIRPT  MOSUNNY   68  61  78 NE5       29.98R
KALAUPAPA      NOT AVBL
MAKAPULAPAI*     N/A     73  64  73 E18G26      N/A
MOLOKAI 1*       N/A     64  55  72 N2          N/A
PUU ALII*        N/A     53  53 100 SE2G12      N/A
$$

HIZ016-271900-
KAHOOLAWE-

CITY           SKY/WX    TMP DP  RH WIND       PRES   REMARKS
KAHOOLAWE*       N/A     66 N/A N/A E16G24      N/A
HAKIOAWA*        N/A     67  63  88 MISG      30.39S
HONOKANAIA*      N/A     72  60  67 N8G16     29.99R
KANELOA*         N/A    N/A N/A N/A MISG      29.18S
KEALIALALO*    NOT AVBL
LUA MAKIKA*    NOT AVBL
$$

HIZ014>015-271900-
LANAI-

CITY           SKY/WX    TMP DP  RH WIND       PRES   REMARKS
LANAI CITY     FAIR      63  63 100 NE6       30.02R
LANAI 1*         N/A     66  66 100 NE13G22     N/A
$$

HIZ017>028-271900-
MAUI-

CITY           SKY/WX    TMP DP  RH WIND       PRES   REMARKS
KAHULUI        MOSUNNY   70  63  78 N15       29.97S
KAPALUA-W MAUI MOSUNNY   68  57  68 E7        29.97
HANA AIRPORT   CLOUDY    73  63  68 E6        30.03S
HANA*            N/A     72 N/A N/A E8G17       N/A
HALEAKALA SUMM   N/A     52  19  28 SE16G35     N/A
MAALAEA BAY*   NOT AVBL
HALEAKALA*     NOT AVBL
KAUPO GAP*       N/A     64  46  52 S2G9        N/A
KULA 1*          N/A     55   8  15 E2          N/A
$$

HIZ023>026-271900-
BIG ISLAND OF HAWAII COAST AND LOWER SLOPES-

CITY           SKY/WX    TMP DP  RH WIND       PRES   REMARKS
KAILUA KONA    PTSUNNY   75  65  70 E5        29.94R
HILO           MOSUNNY   66  61  84 SW7       30.00S
HONOKAA*       NOT AVBL
KAWAIHAE MWT*    N/A     72 N/A N/A NE2         N/A
KAWAIHAE*        N/A     77 N/A N/A NE2         N/A
SOUTH POINT*     N/A     66 N/A N/A NE12G17     N/A
UPOLU AIRPORT*   N/A    N/A N/A N/A E13G24      N/A
KAMUELA*       NOT AVBL
HAKALAU*         N/A    N/A N/A N/A SW5G10      N/A
KALOKO-HONOKO*   N/A     73  64  73 NE3       29.94R
PALI 2*          N/A     63  54  72 N14G21      N/A
KEALAKOMO*       N/A     73  59  60 N14G21      N/A
KAUPULEHU*       N/A     72  57  60 S3G9        N/A
KAPAPALA*        N/A     60  58  92 CALM        N/A
LOWER KAHUKU*    N/A     55  54  94 N2          N/A
PUHE CS*       NOT AVBL
PUHO CS*         N/A     70  57  63 NE3         N/A
PTA KEAMUKU*     N/A     57  52  82 CALM        N/A
WAIKOLOA*        N/A     70  57  64 E13G21      N/A
$$

HIZ027>028-271900-
BIG ISLAND OF HAWAII INTERIOR AND SUMMMITS-

CITY           SKY/WX    TMP DP  RH WIND       PRES   REMARKS
BRADSHAW FIELD SUNNY     55  22  27 W6        30.26R
MK VISITOR CEN NOT AVBL
MAUNA KEA*       N/A     37   0  20 NE1         N/A
MAUNA LOA*       N/A     43   7  22 MISG        N/A
MAUNA LOA 1*   NOT AVBL
PTA KIPUKA*      N/A    N/A N/A N/A SE6         N/A
PTA RANGE 17*    N/A    N/A N/A N/A SE5G12      N/A
PTA WEST*        N/A     52  34  50 SE8G15      N/A
NENE CABIN*      N/A    N/A N/A N/A NE7G13      N/A
AHUMOA*          N/A    N/A N/A N/A NE3G10      N/A
PTA PORTABLE*  NOT AVBL
PUU MALI*      NOT AVBL
$$

HIC003-271900-
NORTHWEST ISLANDS-

CITY           SKY/WX    TMP DP  RH WIND       PRES   REMARKS
MIDWAY ISLAND  PTCLDY    61  46  59 N9        30.18R
MIDWAY NOS*    NOT AVBL
FRENCH FRIGATE NOT AVBL
$$

PHZ110>124-180-271900-
BUOY REPORTS

STATION/POSITION TIME  TEMP    WIND        PRES    WAVE   SWELL
                       AIR SEA DIR/SP/G            HT/PER HT/DIR
                 (UTC) (F)     (DEG/KT/KT) (MB)    (FT/S) (FT/D)
BUOY 51001       NOT AVBL
BUOY 51101       1800   69 72   50/ 12/ 16 1016.2R   7/19   7/300
BUOY 51100       1800   71 74  110/ 12/ 16 1017.4R
BUOY 51003       1800   76 78   60/ 12/ 14 1014.4R   8/ 9   7
BUOY 51004       1727   76 78   50/ 17/ 19 1013.9R   8/13   5/340
BARBERS PT BUOY  NOT AVBL
WAIMEA BAY BUOY  1800      76                N/A     5/11
KAILUA BAY BUOY  1800      76                N/A     5/ 8   2/360
LANAI BUOY       1800      77                N/A     3/12   2/260
BARBERS PT 2     1800      77                N/A     4/12   2/240
PAUWELA MAUI     1800      76                N/A     5/12
HILO             1800      77                N/A     6/13   3/340
KANEOHE BAY BUOY 1800      75                N/A     5/ 8   2/360
HANALEI KAUAI    NOT AVBL
KAHULUI HARBOR   1800   73 76   20/ 13/ 15 1015.0R
HONOLULU HARBOR  1800   74 76   70/  4/  7 1015.3R
KILO NALU        NOT AVBL
HILO HARBOR      1800   69 75  200/  4/  5 1015.8R
MOKUOLOE         1800      74              1015.6R
NAWILIWILI       NOT AVBL
WHOTS BUOY       NOT AVBL
BUOY 51028       NOT AVBL
$$

......................KEY........................................
  SKY/WX - SKY CONDITIONS/PRESENT WEATHER
  TMP    - TEMPERATURE IN FAHRENHEIT
  DWPT   - DEWPOINT IN FAHRENHEIT
  RH     - RELATIVE HUMIDITY IN PERCENT
  WIND   - DIRECTION AND SPEED /MPH FOR ISLANDS...KTS FOR BUOYS/
  PRES   - MEAN SEA LEVEL PRESSURE IN INCHES OF HG
  VSB    - VISIBILITY IN MILES
  HX     - HEAT INDEX
  WCI    - WIND CHILL INDEX
  VRB    - VARIABLE WIND DIRECTION
  N/A    - NOT AVAILABLE



USA.gov is the U.S. government's official web portal to all federal, state and local government web resources and services.